This is the latest recevied weather packets stored in our database for station/object KD8UTJ. If no packets are shown the sender has not sent any weather packets the latest 1 day(s).
| Time | Temp. | Humidity | Pressure | Rain* | Wind** | Luminosity | Snow |
|---|---|---|---|---|---|---|---|
| 1777993806 | 26.11° C | 62% | 1019.1 hPa | 0 mm | 3.13 m/s, 106° | 696 W/m² | - |
| 1777993502 | 26.11° C | 59% | 1019 hPa | 0 mm | 0.89 m/s, 108° | 668 W/m² | - |
| 1777993203 | 26.11° C | 63% | 1018.9 hPa | 0 mm | 2.68 m/s, 100° | 668 W/m² | - |
| 1777992900 | 26.11° C | 63% | 1018.9 hPa | 0 mm | 1.34 m/s, 108° | 656 W/m² | - |
| 1777992598 | 26.11° C | 60% | 1018.7 hPa | 0 mm | 2.68 m/s, 89° | 641 W/m² | - |
| 1777992296 | 25.56° C | 65% | 1018.7 hPa | 0 mm | 0.89 m/s, 121° | 626 W/m² | - |
| 1777991993 | 26.11° C | 63% | 1018.5 hPa | 0 mm | 1.79 m/s, 104° | 616 W/m² | - |
| 1777991691 | 25.56° C | 64% | 1018.6 hPa | 0 mm | 2.24 m/s, 109° | 597 W/m² | - |
| 1777991388 | 25.56° C | 64% | 1018.5 hPa | 0 mm | 1.79 m/s, 106° | 542 W/m² | - |
| 1777991085 | 25.56° C | 63% | 1018.5 hPa | 0 mm | 2.24 m/s, 75° | 586 W/m² | - |
| 1777990782 | 25.56° C | 67% | 1018.7 hPa | 0 mm | 2.24 m/s, 67° | 566 W/m² | - |
| 1777990479 | 25° C | 67% | 1018.6 hPa | 0 mm | 3.58 m/s, 85° | 569 W/m² | - |
| 1777990176 | 25.56° C | 67% | 1018.6 hPa | 0 mm | 1.79 m/s, 61° | 369 W/m² | - |
| 1777989873 | 25.56° C | 65% | 1018.7 hPa | 0 mm | 3.13 m/s, 94° | 520 W/m² | - |
| 1777989571 | 25.56° C | 65% | 1018.8 hPa | 0 mm | 0.89 m/s, 125° | 514 W/m² | - |
| 1777989266 | 25.56° C | 64% | 1018.7 hPa | 0 mm | 2.24 m/s, 12° | 502 W/m² | - |
| 1777988962 | 25.56° C | 66% | 1018.6 hPa | 0 mm | 1.79 m/s, 100° | 402 W/m² | - |
| 1777988659 | 25.56° C | 66% | 1018.8 hPa | 0 mm | 1.34 m/s, 118° | 500 W/m² | - |
| 1777988355 | 25° C | 67% | 1018.7 hPa | 0 mm | 0.89 m/s, 110° | 504 W/m² | - |
| 1777988053 | 25° C | 68% | 1018.6 hPa | 0 mm | 1.79 m/s, 133° | 392 W/m² | - |
| 1777987748 | 25° C | 68% | 1018.5 hPa | 0 mm | 2.24 m/s, 115° | 372 W/m² | - |
| 1777987446 | 25.56° C | 69% | 1018.7 hPa | 0 mm | 1.79 m/s, 84° | 418 W/m² | - |
| 1777987143 | 25° C | 70% | 1018.5 hPa | 0 mm | 1.34 m/s, 89° | 391 W/m² | - |
| 1777986839 | 25° C | 70% | 1018.4 hPa | 0 mm | 2.68 m/s, 81° | 311 W/m² | - |
| 1777986537 | 25° C | 69% | 1018.2 hPa | 0 mm | 1.34 m/s, 91° | 356 W/m² | - |
* Rain latest hour (hover to see other rain measurements)
** Current wind speed in m/s (hover to see current wind gust speed)